Dewpoint
62 62 63 64 64 64 65 65 66 66 66 66 66 66 66 66 66 66 66 66 66 65 63 64 64 64 63 63 63 63 60 60
61 61 61 61 60 63 63 64 65 65 66 65 64 64 64 65 64 64 63 62 62 62 61 60 59 59 59 62 61 60 58 57
61 61 61 59 58 60 63 64 64 65 65 64 62 61 60 60 63 62 61 61 60 59 59 58 57 56 57 57 58 56 56 56
61 61 61 60 59 58 60 61 61 61 62 61 61 59 58 59 61 61 61 60 59 58 58 56 54 52 53 54 54 54 55 55
60 61 60 60 60 58 59 60 60 60 59 61 60 60 59 58 57 57 56 58 55 55 53 53 51 51 52 53 54 54 54 55
57 57 58 57 59 59 59 59 59 59 59 59 59 58 57 57 56 56 55 54 53 53 53 53 52 52 53 53 53 54 55 55
54 56 57 55 58 58 58 58 59 58 58 57 57 57 56 56 55 54 54 53 53 53 53 52 52 51 52 52 53 54 53 53
52 55 56 54 55 54 56 55 56 55 55 54 54 56 55 54 54 53 53 53 52 51 49 47 47 47 44 45 46 52 46 45
51 54 55 53 52 52 51 50 50 51 52 52 53 55 54 54 53 52 53 52 50 49 47 42 40 41 39 41 44 45 42 42
51 52 53 53 52 51 50 48 48 47 49 50 50 52 51 52 52 52 52 51 50 43 39 37 37 38 38 38 38 38 38 40
49 49 50 50 50 50 50 48 47 46 46 48 49 49 51 48 49 49 49 47 48 41 38 37 36 36 36 37 37 37 37 37
46 46 48 48 47 45 43 42 42 43 44 46 48 48 48 48 47 47 46 44 44 40 38 39 37 37 35 36 37 37 37 37
43 41 43 44 41 39 38 39 39 40 41 42 45 47 47 47 45 45 45 42 42 41 39 37 38 39 37 35 36 37 37 37
40 37 35 41 38 36 36 36 37 39 40 40 42 46 47 46 45 43 44 43 41 40 39 38 38 39 36 35 32 34 34 36
36 36 35 35 36 36 35 35 36 36 36 37 38 41 43 46 45 44 42 43 42 40 39 38 37 38 38 35 33 31 33 34
34 36 37 37 37 36 36 34 34 36 37 37 36 39 41 43 45 44 42 42 42 41 40 39 37 37 38 39 35 35 25 22
38 39 40 41 40 40 40 39 40 41 40 40 40 40 39 40 42 44 43 41 42 41 39 38 36 36 31 32 32 33 33 27
40 40 40 41 41 41 41 40 41 40 39 41 41 41 40 39 40 41 40 37 36 35 36 36 36 37 37 36 35 33 30 30
40 40 40 41 42 42 42 41 39 38 38 39 40 40 36 36 37 38 39 39 39 39 39 39 40 40 40 39 39 38 38 36
40 41 41 41 41 42 41 38 37 37 38 39 39 37 36 38 39 39 39 40 40 41 41 41 42 41 39 38 36 37 37 35
Lifted_Index
-3 -3 -3 -2 -2 -2 -3 -3 -4 -4 -4 -3 -3 -3 -3 -3 -3 -3 -3 -3 -3 -3 -3 -3 -2 -2 -2 -1 -1 -0 0 0
-4 -3 -3 -2 -2 -2 -2 -3 -3 -4 -3 -3 -2 -2 -2 -2 -2 -2 -2 -2 -2 -2 -2 -2 -2 -2 -1 -1 -1 -0 0 1
-4 -4 -3 -3 -2 -1 -2 -2 -2 -3 -3 -2 -2 -2 -1 -1 -1 -1 -0 -0 -0 -1 -1 -0 -0 -0 -0 0 0 0 1 1
-4 -4 -4 -3 -2 -2 -1 -2 -2 -2 -2 -2 -2 -1 -1 -0 0 0 0 1 1 1 2 2 2 3 2 2 2 1 2 2
-4 -3 -3 -3 -2 -2 -1 -1 -2 -2 -2 -2 -2 -1 -1 -0 0 0 1 1 2 3 3 4 4 4 4 4 3 3 3 3
-2 -2 -1 -1 -1 -1 -1 -2 -2 -2 -2 -1 -1 -1 -1 -0 0 1 1 2 3 4 4 4 5 5 5 5 5 4 4 4
-0 1 1 0 -1 -1 -1 -2 -2 -2 -1 -1 -1 -0 0 1 1 1 2 3 3 4 5 6 6 7 7 7 6 6 6 7
2 2 1 1 0 -0 -1 -1 -1 -1 -1 -0 0 1 1 2 2 2 2 3 4 5 6 8 9 9 10 10 9 8 9 10
3 2 2 1 1 1 1 0 1 1 1 2 3 3 3 3 3 3 3 3 4 5 7 9 10 11 11 11 10 10 10 11
3 3 2 2 2 2 2 3 3 4 4 5 5 5 5 4 4 4 4 4 5 6 8 9 10 11 11 10 10 10 11 11
3 3 3 3 3 4 4 4 5 5 6 6 6 6 6 6 6 5 5 5 6 7 8 9 10 10 10 10 10 10 11 11
4 4 4 4 4 4 5 5 5 6 6 6 6 6 6 6 6 6 7 7 7 8 8 9 9 9 9 9 9 10 10 10
4 4 4 4 5 5 5 6 5 5 6 6 6 6 6 6 6 7 7 7 7 8 8 8 8 8 8 8 8 9 9 9
4 4 4 5 5 5 6 6 6 5 5 5 5 5 6 6 6 6 7 7 7 7 7 7 7 7 7 7 7 7 7 8
4 4 4 5 5 5 6 6 5 5 5 5 5 5 5 6 6 6 6 6 6 6 7 6 6 6 6 7 6 6 6 7
4 4 5 5 5 5 5 5 5 4 4 4 5 5 5 5 5 5 5 6 6 6 6 6 6 6 7 7 7 6 6 6
5 5 5 5 4 4 4 4 4 4 4 4 4 5 5 5 5 5 5 5 5 5 5 6 6 6 7 7 7 6 6 6
5 5 5 4 4 4 4 4 4 5 5 5 5 6 6 6 6 5 5 5 5 5 5 5 6 6 7 7 7 7 6 6
5 5 5 5 5 5 5 6 6 6 6 7 6 6 7 6 6 6 6 5 5 6 6 6 7 7 7 7 6 6 7 7
5 5 5 5 6 6 6 7 7 7 7 7 7 7 7 7 7 7 6 6 6 7 7 7 8 7 7 6 6 6 6 7